星链-31082 (STARLINK-31082 )

导读

STARLINK-31082是美国星链计划的低轨互联网卫星,于2023年12月19日发射,隶属于SpaceX公司的星链星座网络。作为星链批量部署的一员,它承担着为全球提供低延迟宽带互联网服务的任务,尤其服务偏远地区、航空与航海场景,推动了全球卫星互联网组网进程,也是美国低轨卫星星座建设的重要组成部分。

基本信息
目录编号:
58606
目录名称:
STARLINK-31082
国际标识:
2023-200T
轨道中心:
EARTH
卫星名称:
星链-31082
卫星全名:
星链-31082 (STARLINK-31082 )
卫星状态:
在轨 (已飞行990 天)
发射日期:
2023-12-19 UTC
国别 :
美国 (US)
星等 :
--
轨道信息
数据来源 国际轨道数据
星历时间: 2026-09-04T08:14:38+0800
11小时前
查看轨道信息
半长轴: 6861.19km
偏心率: 0.0001348
轨道倾角: 43.001°
近地点辐角 271.663°
升交点赤经 241.706°
平近点角 88.407°
近地点: 482.128km
远地点: 483.978km
周期: 94.267分钟
每日圈数: 15.275787
详细信息
固有亮度:
5
最大亮度:
0.3
卫星平台:
Starlink v2.0 mini
覆盖范围:
全球
运营商:
太空探索技术公司
运营商所在国:
美国
制造商(研发单位):
太空探索技术公司
制造商所在国:
美国
使用方式:
暂无
卫星简介
星链(Starlink)计划是由太空探索技术公司(SpaceX)提出的一个巨型低轨卫星互联网星座项目,计划在2019年至2024年间在太空搭建由约1.2万颗卫星组成的“星链”网络,其中1584颗将部署在地球上空550千米处的近地轨道,并从2020年开始工作。该卫星仍在工作。
2D轨道图
3D轨道图
轨道高度分析图
轨道倾角分析图
轨道综合分析图
查看轨道综合分析图
交会数据列表
事件ID 空间交会对象 最接近时刻(TCA) 交会距离 交会风险概率(CRP) 交会风险指数(CRI) 操作
CDM_260905-173202-612105-860621
CZ-4 DEB (26121)
2026-09-05T
17:32:07+0000
0.616 km
远距离
1.140805E-4 高风险 0.76
CDM_260906-034405-860606-733821
2026-09-06T
03:44:04+0000
0.975 km
远距离
1.402256E-5 中风险 0.58
CDM_260906-051805-860606-733821
2026-09-06T
05:18:13+0000
1.077 km
极远距离
9.931973E-6 低风险 0.55
CDM_260902-080205-860606-469921
2026-09-02T
08:02:43+0000
1.406 km
极远距离
3.611178E-6 低风险 0.46
CDM_260902-071505-860606-469921
2026-09-02T
07:15:37+0000
2.010 km
极远距离
1.322189E-6 低风险 0.37
CDM_260906-020905-860606-733821
2026-09-06T
02:09:55+0000
2.915 km
极远距离
7.635603E-7 极低风险 0.33
CDM_260902-093605-860606-469921
2026-09-02T
09:36:57+0000
2.964 km
极远距离
6.832191E-7 极低风险 0.32